User: anonymous   Login
Location: Plum
(40.5000°N, 79.7500°W)
Time: 03:42:04
(UTC-05:00)
Language:

MOZ.5/SAFIR/RUBIN 5/SL-8 - Orbit

View from above orbital plane
View from above orbital plane
View from above satellite
View from above satellite

Ground track
Ground track

The orbit data is extracted from the following two-line orbital elements,

1 28898U 05043G   14352.85832501  .00000849  00000-0  18680-3 0    60
2 28898 097.8347 172.2505 0020508 171.4867 292.5945 14.59690971486865
Epoch (UTC): 18 December 2014 20:35:59
Eccentricity: 0.0020508
inclination: 97.8347°
perigee height: 679 km
apogee height: 708 km
right ascension of ascending node: 172.2505°
argument of perigee: 171.4867°
revolutions per day: 14.59690971
mean anomaly at epoch: 292.5945°
orbit number at epoch: 48686

The dashed part of the orbit path shows where the satellite is in the earth's shadow,  

DLR